Regional Weather Roundup
Issued by NWS

Home | Current Version | Previous Version | Graphics & Text | Print | Product List | Glossary On
Versions: 1 2 3 4 5 6 7 8 9 10 11 12 13 14 15 16 17 18 19 20 21 22 23 24 25 26 27 28 29 30 31 32 33 34 35 36 37 38 39 40 41 42 43 44 45 46 47 48 49 50
000
ASUS45 KTFX 230304
RWRMT
MONTANA HOURLY WEATHER ROUNDUP
NATIONAL WEATHER SERVICE GREAT FALLS MT
904 PM MDT FRI AUG 22 2014

NOTE: "FAIR" INDICATES FEW OR NO CLOUDS BELOW 12000 FEET WITH NO
SIGNIFICANT WEATHER AND/OR OBSTRUCTIONS TO VISIBILITY.

* THESE STATIONS ARE NOT UNDER NWS QUALITY CONTROL. THEY DO NOT
   REPORT WEATHER SUCH AS PRECIPITATION OR FOG.

MTZ001>007-043-230400-
WEST OF THE DIVIDE
CITY           SKY/WX    TMP DP  RH WIND       PRES   REMARKS
KALISPELL      CLOUDY    59  41  51 N17       30.14R
MISSOULA       CLOUDY    61  50  67 N14G22    30.06R
BUTTE          LGT RAIN  48  46  93 W3        30.13F
MULLAN PASS    CLOUDY    46  45  96 VRB3      30.15R
* ESSEX        N/A       53  40  62 NE1G8      N/A
* LINCOLN      N/A       53  47  80 E8G15      N/A
* LOOKOUT PASS N/A       54  46  74 NW3        N/A
* POLSON       N/A       57  47  69 NE4        N/A
* RONAN APT    MOCLDY    57  54  90 N/A        N/A
* SEELEY LAKE  N/A       55  53  93 N/A        N/A
* THOMP F APT  CLOUDY    47  45  93 NE5G10     N/A
$$

MTZ008-052>055-230400-
SOUTHWEST MONTANA
CITY           SKY/WX    TMP DP  RH WIND       PRES   REMARKS
BOZEMAN        LGT RAIN  54  50  86 NW8       30.08S
DILLON         CLOUDY    54  48  80 E3        30.07S
W YELLOWSTONE  CLOUDY    48  45  89 NE7       30.13R
* THREE FORKS  CLOUDY    55  37  51 N/A        N/A
* BOULDER HILL N/A       49  45  86 VRB6G11    N/A
* MONIDA PASS  N/A       45  45 100 NE2G10     N/A
* RAYNOLDS PAS N/A       47  -1  13 N3         N/A
* WHITEHALL    N/A       54  51  90 N5         N/A
* WISE RIVER   N/A       48  46  93 W2         N/A
$$

MTZ009>010-012-014-046-048-049-054-230400-
EAST SLOPES AND CENTRAL MONTANA
CITY           SKY/WX    TMP DP  RH WIND       PRES   REMARKS
CUT BANK       CLOUDY    48  46  93 N17       30.24R
GREAT FALLS    CLOUDY    52  50  93 N18G23    30.15R
HELENA         LGT RAIN  57  50  78 N8        30.11R
MALMSTROM AFB  CLOUDY    55  54  96 N14       30.15S
* CONRAD       MOCLDY    48  48 100 NW11G18    N/A
* DEARBORN     N/A       54  50  86 VRB6       N/A
* EAST GLACIER N/A       43  41  93 NE14       N/A
* MONARCH      N/A       49  46  89 VRB10      N/A
* PENDROY      N/A       46  46 100 NE18G27    N/A
* SAINT MARY   N/A       43  42  96 N6G13      N/A
* SWEET GRASS  N/A       46  46 100 NE23G28    N/A
$$

MTZ011-013-016-021-035-040-045-047-050-051-230400-
NORTH CENTRAL MONTANA
CITY           SKY/WX    TMP DP  RH WIND       PRES   REMARKS
HAVRE          LGT RAIN  57  55  93 NE16      30.14R
LEWISTOWN      CLOUDY    55  54  96 N9        30.10S
* CHESTER      N/A       52  50  93 NE10G17    N/A
* DENTON       N/A       56  55  96 NW6        N/A
* GEYSER       N/A       56  51  83 NW4G10     N/A
* JUDITH GAP   N/A       53  53 100 VRB15      N/A
* LOMA         N/A       58  55  90 N9G14      N/A
$$

MTZ017>020-022>027-061-062-230400-
NORTHEAST MONTANA
CITY           SKY/WX    TMP DP  RH WIND       PRES   REMARKS
GLASGOW        CLOUDY    63  54  73 NE18G28   30.10R
GLENDIVE       CLOUDY    63  59  87 NE15      30.09R
JORDAN         CLOUDY    63  57  81 NE14G23   30.07R
SIDNEY         CLOUDY    64  57  78 NE8       30.11S
WOLF POINT     CLOUDY    64  54  70 E12       30.11R
* BEAVER HILL  N/A       61  59  93 NE15G20    N/A
* CIRCLE       N/A       62  57  84 NE12       N/A
* LINDSAY DVD  N/A       60  57  90 NE17G24    N/A
* SACO         N/A       63  53  70 NE11       N/A
$$

MTZ028>042-056>058-230400-
SOUTHCENTRAL AND SOUTHEAST MONTANA
CITY           SKY/WX    TMP DP  RH WIND       PRES   REMARKS
BAKER          CLOUDY    64  61  90 E17       30.06R
BILLINGS       LGT RAIN  61  57  87 NE8       30.03R
LIVINGSTON     LGT RAIN  55  50  83 SE8       30.08R
MILES CITY     CLOUDY    64  61  90 NE14      30.02R
* LAUREL APT   CLOUDY    61  55  81 N/A        N/A
* ROUNDUP APT  CLOUDY    61  54  78 N6         N/A
* ALZADA       N/A       65  61  87 NE12G17    N/A
* HYSHAM       N/A       64  54  70 E12G17     N/A
* LAME DEER    N/A       58  58 100 NE12G19    N/A
* REED POINT   N/A       58  57  96 SW1        N/A
* ROSCOE HILL  N/A       52  48  86 SW1        N/A
$$

REGIONAL REPORTS...DAKOTAS
CITY           SKY/WX    TMP DP  RH WIND       PRES   REMARKS
WILLISTON      CLOUDY    64  54  70 E12       30.12S
DICKINSON      CLOUDY    64  61  90 E12       30.08R
BEACH          N/A       63  63 100 E14       30.10R
CROSBY         CLOUDY    61  57  87 NE9       30.17R
TIOGA          CLOUDY    61  61 100 E10       30.18S
WATFORD CITY   CLOUDY    61  57  87 NE10      30.10S
BISMARCK       CLOUDY    66  64  93 NE13      30.07R
GRAND FORKS    CLOUDY    66  63  90 N13       30.06S
FARGO          CLOUDY    70  64  81 N12       30.04S
BUFFALO SD     CLOUDY    66  61  84 E13       29.99S
RAPID CITY     CLOUDY    66  63  90 CALM      30.01S
$$

REGIONAL REPORTS...WYOMING/IDAHO/WASHINGTON
CITY           SKY/WX    TMP DP  RH WIND       PRES   REMARKS
GILLETTE       TSTM      61  57  87 NE14      30.02F
SHERIDAN       LGT RAIN  61  55  81 NW8       30.02R
CODY           MOCLDY    57  52  83 NW8       30.05R
YELLOWSTONE LA CLOUDY    46  41  83 CALM      30.19S
SALMON         MOCLDY    55  43  64 SW8       30.03R
MULLAN PASS    CLOUDY    46  45  96 VRB3      30.15S
SAND POINT     MOCLDY    63  48  58 NE13G21   30.08R
SPOKANE        MOCLDY    66  48  52 NE10      30.04R

$$




USA.gov is the U.S. government's official web portal to all federal, state and local government web resources and services.